ARIANE 42P DEB *, 47108

Orbit data source: Space-Track

ARIANE 42P DEB *, 47108 is space debris in LEO originally from a launch on Mon, 10 Aug 1992 UTC launched from the French Guiana (FRGUI). Debris objects in space refer to the collection of defunct objects orbiting the Earth. Examples of debris include non-operational satellites, rocket bodies, and fragments generated from explosions, collisions, or faulty payload assembly.

Loading next visibility...
Identifier
47108, 1992-052P
Orbit
LEO
Last TLE update
2 days ago
Origin
Manufacturer
ArianeGroup
Mission
Spacecraft
Bus & Motor
Unknown
Mass
Unknown
Launch date (UTC)
1992-08-10 (33 years ago)
Launch vehicle
Unknown
Launch site
French Guiana (FRGUI)
Object type
Payload
Rocket body
Debris
Shape & HBR
Unknown
Radar Cross Section
Small (<0.1 m²)

Expand to show TLE details & history

TLE from 2 days ago
0 ARIANE 42P DEB *
1 47108U 92052P   25181.88744224  .00001029  00000-0  58836-3 0  9999
2 47108  65.8198   2.4032 1167061  68.6347 303.5032 12.43360978 55511
Epoch: 2025-06-30T21:17Z
TLE epoch observation values (Epoch: 2025-06-30T21:17:55.009Z)
Latitude
-0.00003°
Longitude
123.73318°
Altitude
1,068.98 km
Speed
7.513 km/s
True Right ascension
00h 09m 36s
True Declination
0° 00' 00"
Sunlit
Object was in daylight at epoch
Visualization orbit readout
Latitude
-65.04329°
Longitude
13.60872°
Altitude
2,393.538 km
Speed
6.354 km/s
Apparent Right ascension
19h 04m 16s
Apparent Declination
-57° 54' 32"
Sunlit
Object is in full shadow
Visualization observer readout
Local Sidereal Time
08:43:52
Azimuth
146.705° SSE
Elevation
-65.954°
Doppler factor
1
Orbital elements
Apogee altitude
2,409.348 km
Perigee altitude
572.601 km
Semi-major axis
7,869.111 km
Eccentricity
0.11671
Inclination
65.8198°
RAAN
2.4032°
Arg. of periapsis
68.6347°
True anomaly
Unknown
Mean anomaly
303.5032°
Eccentric anomaly
Unknown
Mean motion
3.10924 °/min
Orbital period
115.78 mins
BSTAR
0.00058836
Loading maneuver chart data...
Loading SW <> Apogee altitude chart data...
Loading historical data...
Loading historical data...
Loading historical data...
Loading historical data...
Loading historical data...
Loading historical data...
Loading historical data...

ARIANE 42P DEB * Visibility forecast

Observer location: undefined°, undefined°

Span
Click to sort rows by Start time (UTC) header in descending order
Start Az.
Max El. time (UTC)
Max El. Az.
Max El.
End time (UTC)
End Az.
12 mins2025-07-02 22:03:45.153Z341.183° N2025-07-02 22:08:45.153Z68.794° E39.541°2025-07-02 22:15:45.153Z134.784° SE
9 mins2025-07-03 00:04:45.153Z281.311° WNW2025-07-03 00:07:45.153Z245.249° WSW22.63°2025-07-03 00:13:45.153Z198.723° SSW
6 mins2025-07-03 13:08:45.153Z192.069° SSW2025-07-03 13:11:45.153Z116.543° SE41.022°2025-07-03 13:14:45.153Z41.505° NE
|